Showing default

ARVAKER-3, 64566

Orbit data source: Space-Track

ARVAKER-3, 64566 is a payload satellite owned by NSC (NO) in SSO that was launched on Mon, 23 Jun 2025 UTC via an FALCON 9 launch vehicle from the Air Force Western Test Range (AFWTR). Payload-class satellites include a variety of spacecraft equipped with specific instruments for various scientific and technological missions. These include communications satellites like Starlink; space stations such as the ISS; scientific satellites like the Hubble; Earth observation satellites from companies like Planet Labs, Umbra, and HawkEye 360; GPS; miniature CubeSats for education and research; and military/defense satellites.

Loading next visibility...
Identifier
64566, 2025-135AQ
Orbit
SSO
Country
Flag of NONO / NOR
Related business
Manufacturer
NanoAvionics
Mission
Operational Commercial Sigint
Bus & Motor
MP42, Unknown motor
Mass
~100 kg wet, ~100 kg dry
Launch date (UTC)
2025-06-23 (8 months ago)
Launch vehicle
FALCON 9
Launch site
Air Force Western Test Range (AFWTR)
Object type
Payload
Rocket body
Debris
Shape & HBR
Box + 2 Pan, 0.5 m
Radar Cross Section
0.146 m², Medium (>0.1 m² and < 1m²)

Expand to show TLE details & history
Last TLE update: 7 hours ago

TLE from 7 hours ago
0 ARVAKER-3
1 64566U 25135AQ  26062.62742297  .00003780  00000-0  36823-3 0  9991
2 64566  97.7600 178.0510 0000645 322.6983  37.4192 14.93083042 38122
Epoch: 2026-03-03T15:03Z
TLE epoch observation values (Epoch: 2026-03-03T15:03:29.344Z)
Latitude
0.00001°
Longitude
150.77497°
Altitude
591.016 km
Speed
7.565 km/s
True Right ascension
11h 52m 12s
True Declination
0° 00' 00"
Sunlit
Object was in full shadow at epoch
Visualization orbit readout
Latitude
Unknown
Longitude
Unknown
Altitude
Unknown
Speed
Unknown
Apparent Right ascension
Unknown
Apparent Declination
Unknown
Sunlit
N/A
Visualization observer readout
Local Sidereal Time
02:02:24
Azimuth
Unknown
Elevation
Unknown
Doppler factor
Unknown
Orbital elements
Apogee altitude
585.795 km
Perigee altitude
584.897 km
Semi-major axis
6,963.483 km
Eccentricity
0.00006
Inclination
97.76°
RAAN
178.051°
Arg. of periapsis
322.6983°
True anomaly
37.42369°
Mean anomaly
37.4192°
Eccentric anomaly
37.42145°
Mean motion
3.73511 °/min
Orbital period
96.38 mins
BSTAR
0.00036823
Loading maneuver chart data...
Computing Atmospheric mass density...
Loading historical data...
Loading historical data...
Loading historical data...
Loading historical data...
Loading historical data...
Loading historical data...
Loading historical data...

Documentation

Showing up to 5 results
|